This is the latest recevied weather packets stored in our database for station/object HB9HFD-13. If no packets are shown the sender has not sent any weather packets the latest 10 day(s).
| Time | Temp. | Humidity | Pressure | Rain* | Wind** | Luminosity | Snow |
|---|---|---|---|---|---|---|---|
| 1778147836 | 17.22° C | 58% | 1012 hPa | 0 mm | - | - | - |
| 1778147535 | 17.78° C | 63% | 1012.1 hPa | 0 mm | - | - | - |
| 1778147235 | 17.22° C | 69% | 1012 hPa | 0 mm | - | - | - |
| 1778146935 | 16.67° C | 73% | 1012 hPa | 0 mm | - | - | - |
| 1778146635 | 16.11° C | 69% | 1012.1 hPa | 0 mm | - | - | - |
| 1778146334 | 16.11° C | 68% | 1012 hPa | 0 mm | - | - | - |
| 1778146034 | 16.11° C | 68% | 1012.1 hPa | 0 mm | - | - | - |
| 1778145734 | 16.11° C | 67% | 1012 hPa | 0 mm | - | - | - |
| 1778145433 | 15.56° C | 71% | 1012.1 hPa | 0 mm | - | - | - |
| 1778145133 | 15.56° C | 68% | 1012.1 hPa | 0 mm | - | - | - |
| 1778144833 | 15.56° C | 72% | 1012.1 hPa | 0 mm | - | - | - |
| 1778144533 | 15° C | 71% | 1012 hPa | 0 mm | - | - | - |
| 1778144232 | 15° C | 71% | 1012 hPa | 0 mm | - | - | - |
| 1778143932 | 15° C | 74% | 1012 hPa | 0 mm | - | - | - |
| 1778143632 | 14.44° C | 72% | 1012 hPa | 0 mm | - | - | - |
| 1778143332 | 14.44° C | 72% | 1012 hPa | 0 mm | - | - | - |
| 1778143031 | 15° C | 72% | 1011.9 hPa | 0 mm | - | - | - |
| 1778142731 | 14.44° C | 75% | 1012.1 hPa | 0 mm | - | - | - |
| 1778142431 | 14.44° C | 69% | 1012 hPa | 0 mm | - | - | - |
| 1778142130 | 14.44° C | 77% | 1012.1 hPa | 0 mm | - | - | - |
| 1778141830 | 13.89° C | 76% | 1012 hPa | 0 mm | - | - | - |
| 1778141530 | 13.33° C | 77% | 1012 hPa | 0 mm | - | - | - |
| 1778141230 | 12.78° C | 80% | 1012.1 hPa | 0 mm | - | - | - |
| 1778140929 | 12.78° C | 78% | 1012.2 hPa | 0 mm | - | - | - |
| 1778140629 | 12.78° C | 80% | 1012.1 hPa | 0 mm | - | - | - |
* Rain latest hour (hover to see other rain measurements)
** Current wind speed in m/s (hover to see current wind gust speed)